Jaipur, India

6:19 AM IST on September 29, 2016 (GMT +0530)
Jaipur

Weather History for VIJP - December, 2013

Change the Weather History Date:

Tuesday, December 10, 2013

  Actual Average Record
Temperature  
Mean Temperature 66 °F -  
Max Temperature 81 °F - - ()
Min Temperature 52 °F - - ()
Cooling Degree Days 2    
Growing Degree Days 16 (Base 50)    
Moisture  
Dew Point 47 °F    
Average Humidity 52    
Maximum Humidity 82    
Minimum Humidity 18    
Precipitation  
Precipitation 0.00 in - - ()
Sea Level Pressure  
Sea Level Pressure 29.95 in    
Wind  
Wind Speed 1 mph ()    
Max Wind Speed 7 mph    
Max Gust Speed -    
Visibility 1.3 miles    
Events      
T = Trace of Precipitation, MM = Missing Value Source: Averaged Metar Reports

Daily Weather History Graph

Daily Weather History Graph

Search for Another Location

Airport or City:

Trip Planner

Search our weather history database for the weather conditions in past years. The results will help you decide how hot, cold, wet, or windy it might be!

Date:

Astronomy

Dec. 10, 2013 Rise Set
Actual Time 7:04 AM IST 5:34 PM IST
Civil Twilight 6:39 AM IST 5:59 PM IST
Nautical Twilight 6:10 AM IST 6:28 PM IST
Astronomical Twilight 5:42 AM IST 6:56 PM IST
Moon 12:50 PM IST (12/10) No Moon Set
Length of Visible Light 11h 20m
Length of Day
10h 29m
First Quarter, 57% of the Moon is Illuminated
Dec 10
First Quarter
Dec 17
Full
Dec 25
Last Quarter
Jan 1
New
Jan 8
First Quarter

Hourly Weather History & Observations

Time (IST) Temp. Dew Point Humidity Pressure Visibility Wind Dir Wind Speed Gust Speed Precip Events Conditions
12:00 AM 62.6 °F 44.6 °F 52% 29.95 in 1.6 mi Calm Calm - N/A   Smoke
1:00 AM 60.8 °F 46.4 °F 59% 29.95 in 1.6 mi Calm Calm - N/A   Smoke
2:00 AM 60.8 °F 48.2 °F 63% 29.92 in 1.6 mi Calm Calm - N/A   Smoke
2:30 AM 60 °F 49 °F 56% 29.90 in 1 mi Calm Calm - -   Smoke
4:00 AM 55.4 °F 48.2 °F 77% 29.95 in 1.6 mi Calm Calm - N/A   Smoke
5:00 AM 55.4 °F 48.2 °F 77% 29.95 in 1.6 mi Calm Calm - N/A   Smoke
5:30 AM 55 °F 49 °F 74% 29.92 in 1 mi Calm Calm - -   Mist
6:00 AM 53.6 °F 46.4 °F 77% 29.95 in 1.6 mi Calm Calm - N/A   Mist
6:30 AM 53.6 °F 48.2 °F 82% 29.95 in 1.2 mi Calm Calm - N/A   Mist
7:00 AM 53.6 °F 46.4 °F 77% 29.98 in 1.2 mi Calm Calm - N/A   Mist
8:30 AM 61 °F 48 °F 53% 29.97 in 1 mi 2.3 mph - -   Smoke
9:00 AM 66.2 °F 48.2 °F 52% 30.01 in 1.2 mi East 6.9 mph - N/A   Smoke
10:00 AM 68.0 °F 48.2 °F 49% 30.04 in 1.2 mi East 6.9 mph - N/A   Smoke
11:00 AM 71.6 °F 48.2 °F 43% 30.04 in 1.6 mi SE 4.6 mph - N/A   Smoke
11:30 AM 74 °F 49 °F 31% 29.95 in 1 mi SE 4.6 mph - -   Smoke
12:00 PM 75.2 °F 48.2 °F 38% 30.01 in 1.6 mi SW 4.6 mph - N/A   Smoke
2:00 PM 77.0 °F 41.0 °F 28% 29.95 in 1.9 mi Variable 3.5 mph - N/A   Haze
2:30 PM 79 °F 44 °F 18% 29.87 in 1 mi ESE 3.5 mph - -   Haze
3:00 PM 78.8 °F 42.8 °F 28% 29.92 in 1.9 mi Variable 3.5 mph - N/A   Haze
5:00 PM 75.2 °F 44.6 °F 34% 29.92 in 1.9 mi Variable 3.5 mph - N/A   Haze
5:30 PM 74 °F 44 °F 23% 29.87 in 1 mi South 2.3 mph - -   Haze
6:00 PM 69.8 °F 44.6 °F 40% 29.92 in 1.6 mi Calm Calm - N/A   Haze
7:00 PM 66.2 °F 44.6 °F 46% 29.95 in 1.1 mi Calm Calm - N/A   Smoke
8:00 PM 62.6 °F 48.2 °F 59% 29.95 in 0.7 mi Calm Calm - N/A   Smoke
8:30 PM 60 °F 48 °F 54% 29.94 in 1 mi East 3.5 mph - -   Smoke
10:00 PM 60.8 °F 44.6 °F 55% 29.98 in 1.2 mi Calm Calm - N/A   Smoke
11:00 PM 59.0 °F 46.4 °F 63% 29.98 in 1.2 mi Calm Calm - N/A   Smoke
11:30 PM 58 °F 48 °F 61% 29.96 in 1 mi Calm Calm - -   Smoke